Weather History for NW Arkansas Airport, AR

Change the Weather History Date:

Wednesday, December 19, 2012

  Actual Average Record
Temperature  
Mean Temperature 50 °F -  
Max Temperature 63 °F - - ()
Min Temperature 37 °F - - ()
Degree Days  
Heating Degree Days 15    
Moisture  
Dew Point 49 °F    
Average Humidity 81    
Maximum Humidity 90    
Minimum Humidity 70    
Precipitation  
Precipitation 0.00 in - - ()
Sea Level Pressure  
Sea Level Pressure 29.64 in    
Wind  
Wind Speed 9 mph (SSE)    
Max Wind Speed 26 mph    
Max Gust Speed 46 mph    
Visibility 10 miles    
Events Rain , Thunderstorm    
T = Trace of Precipitation, MM = Missing Value Source: NWS Daily Summary

Daily Weather History Graph

Daily Weather History Graph

Search for Another Location

Airport:

Trip Planner

Search our weather history database for the weather conditions in past years. The results will help you decide how hot, cold, wet, or windy it might be!

Date:

Astronomy

Dec. 19, 2012 Rise Set
Actual Time 7:24 AM CST 5:05 PM CST
Civil Twilight 6:55 AM CST 5:34 PM CST
Nautical Twilight 6:23 AM CST 6:06 PM CST
Astronomical Twilight 5:51 AM CST 6:37 PM CST
Moon 11:44 AM CST (12/19) No Moon Set
Length of Visible Light 10h 38m
Length of Day
9h 41m
Waxing Crescent, 45% of the Moon is Illuminated
Dec 19
Waxing Crescent
Dec 19
First Quarter
Dec 28
Full
Jan 4
Last Quarter
Jan 11
New

Hourly Weather History & Observations

Time (CST) Temp. Windchill Dew Point Humidity Pressure Visibility Wind Dir Wind Speed Gust Speed Precip Events Conditions
12:53 AM 37.0 °F 34.5 °F 33.1 °F 86% 29.82 in 10.0 mi NE 3.5 mph - N/A   Clear
1:53 AM 39.9 °F 37.8 °F 35.1 °F 83% 29.82 in 10.0 mi ESE 3.5 mph - N/A   Clear
2:53 AM 37.9 °F 35.5 °F 34.0 °F 86% 29.81 in 10.0 mi NNE 3.5 mph - N/A   Clear
3:53 AM 39.9 °F 36.7 °F 35.1 °F 83% 29.80 in 10.0 mi ENE 4.6 mph - N/A   Clear
4:53 AM 41.0 °F 37.1 °F 36.0 °F 82% 29.78 in 10.0 mi ENE 5.8 mph - N/A   Clear
5:53 AM 42.1 °F 38.4 °F 36.0 °F 79% 29.78 in 10.0 mi East 5.8 mph - N/A   Clear
6:53 AM 42.1 °F 40.2 °F 36.0 °F 79% 29.77 in 10.0 mi East 3.5 mph - N/A   Clear
7:53 AM 44.1 °F 42.5 °F 36.0 °F 73% 29.77 in 10.0 mi East 3.5 mph - N/A   Scattered Clouds
8:02 AM 44.6 °F 41.4 °F 37.4 °F 76% 29.76 in 10.0 mi East 5.8 mph - N/A   Mostly Cloudy
8:45 AM 46.4 °F 42.9 °F 39.2 °F 76% 29.76 in 10.0 mi SE 6.9 mph - N/A   Partly Cloudy
8:53 AM 48.0 °F - 39.0 °F 71% 29.76 in 10.0 mi SE 5.8 mph - N/A   Clear
9:53 AM 54.0 °F - 46.0 °F 75% 29.75 in 10.0 mi SSE 8.1 mph - N/A   Clear
10:53 AM 57.9 °F - 52.0 °F 81% 29.73 in 10.0 mi South 15.0 mph - N/A   Clear
11:18 AM 60.8 °F - 53.6 °F 77% 29.72 in 10.0 mi South 12.7 mph - N/A   Mostly Cloudy
11:53 AM 61.0 °F - 55.0 °F 81% 29.69 in 10.0 mi South 13.8 mph - N/A   Overcast
12:53 PM 61.0 °F - 55.9 °F 83% 29.66 in 10.0 mi South 13.8 mph - N/A   Overcast
1:53 PM 62.1 °F - 55.9 °F 80% 29.63 in 10.0 mi South 12.7 mph 21.9 mph N/A   Overcast
2:53 PM 62.1 °F - 57.0 °F 84% 29.61 in 10.0 mi South 16.1 mph - N/A   Overcast
3:00 PM 62.6 °F - 55.4 °F 77% 29.61 in 10.0 mi South 18.4 mph - N/A   Overcast
3:53 PM 61.0 °F - 55.9 °F 83% 29.59 in 10.0 mi SSE 15.0 mph - N/A   Mostly Cloudy
4:53 PM 60.1 °F - 55.9 °F 86% 29.57 in 10.0 mi SSE 15.0 mph - N/A   Clear
5:53 PM 60.1 °F - 57.0 °F 90% 29.57 in 10.0 mi South 11.5 mph - N/A   Overcast
6:53 PM 61.0 °F - 57.9 °F 90% 29.53 in 10.0 mi SSE 19.6 mph 27.6 mph N/A   Clear
7:53 PM 62.1 °F - 59.0 °F 90% 29.52 in 10.0 mi South 12.7 mph 21.9 mph N/A   Scattered Clouds
8:45 PM 62.6 °F - 59.0 °F 88% 29.50 in 10.0 mi SW 8.1 mph 24.2 mph N/A Thunderstorm Mostly Cloudy
8:53 PM 63.0 °F - 59.0 °F 87% 29.49 in 10.0 mi SSW 12.7 mph 24.2 mph 0.00 in Rain , Thunderstorm Light Rain
9:05 PM 62.6 °F - 57.2 °F 82% 29.49 in 10.0 mi South 17.3 mph 32.2 mph 0.00 in Rain , Thunderstorm Light Thunderstorms and Rain
9:45 PM 62.6 °F - 57.2 °F 82% 29.45 in 10.0 mi SSW 18.4 mph 28.8 mph 0.00 in Rain Light Rain
9:53 PM 63.0 °F - 53.1 °F 70% 29.43 in 10.0 mi South 17.3 mph 25.3 mph 0.00 in   Overcast
10:15 PM 62.6 °F - 53.6 °F 72% 29.47 in 10.0 mi South 26.5 mph 46.0 mph 0.00 in Rain , Thunderstorm Light Rain
10:30 PM 60.8 °F - 53.6 °F 77% 29.45 in 10.0 mi South 15.0 mph 26.5 mph 0.00 in Rain Light Rain
10:53 PM 59.0 °F - 51.1 °F 75% 29.43 in 10.0 mi South 12.7 mph - 0.00 in   Overcast
11:53 PM 55.9 °F - 50.0 °F 80% 29.44 in 10.0 mi SSW 10.4 mph - N/A   Overcast